Stündliche Wetter Abrazheevka

Heute, 17 Juni, Donnerstag

Zeit Temperatur Niederschläge Wind Luftdruck Luftfeuchtigkeit
00:00 +11°C° 0 mm 3 m/S 746 mmHg 95%
01:00 +11°C° 0 mm 3 m/S 746 mmHg 95%
02:00 +11°C° 0 mm 3 m/S 746 mmHg 95%
03:00 +11°C° 0 mm 3 m/S 746 mmHg 95%
04:00 +12°C° 0 mm 3 m/S 746 mmHg 94%
05:00 +12°C° 0 mm 3 m/S 746 mmHg 92%
06:00 +13°C° 0 mm 3 m/S 746 mmHg 90%
07:00 +16°C° 0 mm 3 m/S 746 mmHg 83%
08:00 +17°C° 0 mm 4 m/S 746 mmHg 77%
09:00 +19°C° 0 mm 5 m/S 745 mmHg 70%
10:00 +20°C° 0 mm 5 m/S 745 mmHg 67%
11:00 +22°C° 0 mm 6 m/S 745 mmHg 63%
12:00 +23°C° 0 mm 6 m/S 745 mmHg 60%
13:00 +22°C° 0 mm 6 m/S 745 mmHg 62%
14:00 +22°C° 0 mm 6 m/S 745 mmHg 64%
15:00 +21°C° 0 mm 6 m/S 744 mmHg 66%
16:00 +20°C° 0 mm 5 m/S 744 mmHg 70%
17:00 +20°C° 0 mm 4 m/S 744 mmHg 74%
18:00 +19°C° 0 mm 3 m/S 743 mmHg 78%
19:00 +18°C° 0 mm 3 m/S 743 mmHg 81%
20:00 +16°C° 0 mm 3 m/S 743 mmHg 85%
21:00 +14°C° 0 mm 3 m/S 743 mmHg 88%
22:00 +14°C° 0 mm 3 m/S 743 mmHg 89%
23:00 +14°C° 0 mm 3 m/S 743 mmHg 90%

Morgen, 18 Juni, Freitag

Zeit Temperatur Niederschläge Wind Luftdruck Luftfeuchtigkeit
00:00 +13°C° 0 mm 3 m/S 743 mmHg 91%
01:00 +13°C° 0 mm 3 m/S 743 mmHg 92%
02:00 +14°C° 0 mm 2 m/S 742 mmHg 93%
03:00 +13°C° 0 mm 2 m/S 742 mmHg 95%
04:00 +13°C° 0.3 mm 2 m/S 742 mmHg 94%
05:00 +14°C° 0.3 mm 2 m/S 742 mmHg 94%
06:00 +14°C° 0.3 mm 2 m/S 741 mmHg 93%
07:00 +15°C° 1.2 mm 2 m/S 741 mmHg 94%
08:00 +15°C° 1.2 mm 2 m/S 741 mmHg 95%
09:00 +16°C° 1.2 mm 2 m/S 741 mmHg 96%
10:00 +16°C° 2.9 mm 2 m/S 741 mmHg 96%
11:00 +16°C° 2.9 mm 2 m/S 741 mmHg 97%
12:00 +16°C° 2.9 mm 1 m/S 741 mmHg 97%
13:00 +16°C° 2.1 mm 1 m/S 740 mmHg 97%
14:00 +16°C° 2.1 mm 1 m/S 740 mmHg 97%
15:00 +16°C° 2.1 mm 1 m/S 740 mmHg 96%
16:00 +17°C° 0.2 mm 2 m/S 740 mmHg 95%
17:00 +17°C° 0.2 mm 2 m/S 740 mmHg 95%
18:00 +17°C° 0.2 mm 2 m/S 740 mmHg 94%
19:00 +16°C° 0 mm 2 m/S 741 mmHg 94%
20:00 +16°C° 0 mm 2 m/S 741 mmHg 95%
21:00 +16°C° 0 mm 2 m/S 741 mmHg 95%
22:00 +15°C° 0.1 mm 2 m/S 741 mmHg 96%
23:00 +14°C° 0.1 mm 1 m/S 741 mmHg 96%

übermorgen, 19 Juni, Samstag

Zeit Temperatur Niederschläge Wind Luftdruck Luftfeuchtigkeit
00:00 +13°C° 0.1 mm 1 m/S 741 mmHg 96%
01:00 +13°C° 0 mm 1 m/S 741 mmHg 96%
02:00 +13°C° 0 mm 1 m/S 741 mmHg 96%
03:00 +13°C° 0 mm 1 m/S 741 mmHg 96%
04:00 +13°C° 0 mm 1 m/S 741 mmHg 96%
05:00 +14°C° 0 mm 1 m/S 741 mmHg 96%
06:00 +14°C° 0 mm 1 m/S 742 mmHg 95%
07:00 +16°C° 0.3 mm 1 m/S 742 mmHg 92%
08:00 +18°C° 0.3 mm 1 m/S 742 mmHg 89%
09:00 +19°C° 0.3 mm 1 m/S 742 mmHg 86%
10:00 +20°C° 0.8 mm 1 m/S 742 mmHg 85%
11:00 +20°C° 0.8 mm 2 m/S 742 mmHg 83%
12:00 +20°C° 0.8 mm 2 m/S 741 mmHg 81%
13:00 +21°C° 1.4 mm 2 m/S 741 mmHg 80%
14:00 +21°C° 1.4 mm 2 m/S 741 mmHg 78%
15:00 +21°C° 1.4 mm 2 m/S 741 mmHg 77%
16:00 +20°C° 1.3 mm 2 m/S 741 mmHg 81%
17:00 +20°C° 1.3 mm 2 m/S 741 mmHg 84%
18:00 +19°C° 1.3 mm 2 m/S 741 mmHg 88%
19:00 +18°C° 0.6 mm 2 m/S 742 mmHg 90%
20:00 +16°C° 0.6 mm 2 m/S 742 mmHg 93%
21:00 +15°C° 0.6 mm 2 m/S 743 mmHg 95%
22:00 +15°C° 0.2 mm 2 m/S 743 mmHg 95%
23:00 +14°C° 0.2 mm 2 m/S 743 mmHg 95%

20 Juni, Sonntag

Zeit Temperatur Niederschläge Wind Luftdruck Luftfeuchtigkeit
00:00 +14°C° 0.2 mm 1 m/S 743 mmHg 95%
01:00 +14°C° 0 mm 1 m/S 743 mmHg 95%
02:00 +13°C° 0 mm 1 m/S 743 mmHg 95%
03:00 +13°C° 0 mm 1 m/S 743 mmHg 95%
04:00 +13°C° 0 mm 1 m/S 744 mmHg 95%
05:00 +14°C° 0 mm 1 m/S 744 mmHg 94%
06:00 +14°C° 0 mm 1 m/S 744 mmHg 94%
07:00 +14°C° 0 mm 1 m/S 744 mmHg 91%
08:00 +15°C° 0 mm 2 m/S 745 mmHg 89%
09:00 +16°C° 0 mm 2 m/S 745 mmHg 86%
10:00 +17°C° 0 mm 2 m/S 745 mmHg 83%
11:00 +17°C° 0 mm 3 m/S 745 mmHg 80%
12:00 +18°C° 0 mm 3 m/S 745 mmHg 78%
13:00 +18°C° 0.1 mm 3 m/S 745 mmHg 78%
14:00 +18°C° 0.1 mm 3 m/S 745 mmHg 77%
15:00 +18°C° 0.1 mm 3 m/S 745 mmHg 77%
16:00 +17°C° 0 mm 3 m/S 745 mmHg 79%
17:00 +17°C° 0 mm 3 m/S 745 mmHg 82%
18:00 +16°C° 0 mm 2 m/S 746 mmHg 84%
19:00 +15°C° 0 mm 2 m/S 746 mmHg 85%
20:00 +13°C° 0 mm 3 m/S 747 mmHg 85%
21:00 +12°C° 0 mm 3 m/S 747 mmHg 86%
22:00 +12°C° 0 mm 3 m/S 747 mmHg 86%
23:00 +12°C° 0 mm 3 m/S 748 mmHg 86%

21 Juni, Montag

Zeit Temperatur Niederschläge Wind Luftdruck Luftfeuchtigkeit
00:00 +12°C° 0 mm 3 m/S 748 mmHg 86%
01:00 +13°C° 0 mm 2 m/S 748 mmHg 87%
02:00 +12°C° 0 mm 2 m/S 748 mmHg 87%
03:00 +12°C° 0 mm 1 m/S 748 mmHg 88%
04:00 +13°C° 0 mm 1 m/S 749 mmHg 88%
05:00 +13°C° 0 mm 1 m/S 749 mmHg 87%
06:00 +13°C° 0 mm 1 m/S 749 mmHg 87%
07:00 +14°C° 0 mm 1 m/S 749 mmHg 82%
08:00 +16°C° 0 mm 1 m/S 749 mmHg 77%
09:00 +18°C° 0 mm 1 m/S 749 mmHg 71%
10:00 +20°C° 0 mm 1 m/S 749 mmHg 66%
11:00 +21°C° 0 mm 1 m/S 749 mmHg 61%
12:00 +22°C° 0 mm 1 m/S 749 mmHg 56%
13:00 +23°C° 0 mm 1 m/S 748 mmHg 55%
14:00 +23°C° 0 mm 2 m/S 748 mmHg 55%
15:00 +23°C° 0 mm 2 m/S 748 mmHg 54%
16:00 +21°C° 0 mm 3 m/S 748 mmHg 59%
17:00 +20°C° 0 mm 3 m/S 748 mmHg 65%
18:00 +19°C° 0 mm 4 m/S 748 mmHg 71%
19:00 +17°C° 0 mm 3 m/S 749 mmHg 74%
20:00 +13°C° 0 mm 3 m/S 749 mmHg 77%
21:00 +12°C° 0 mm 2 m/S 750 mmHg 81%
22:00 +12°C° 0 mm 2 m/S 750 mmHg 82%
23:00 +10°C° 0 mm 2 m/S 750 mmHg 84%

22 Juni, Dienstag

Zeit Temperatur Niederschläge Wind Luftdruck Luftfeuchtigkeit
00:00 +10°C° 0 mm 2 m/S 750 mmHg 85%
01:00 +10°C° 0 mm 1 m/S 750 mmHg 85%
02:00 +10°C° 0 mm 1 m/S 750 mmHg 86%
03:00 +10°C° 0 mm 1 m/S 750 mmHg 86%
04:00 +11°C° 0 mm 1 m/S 750 mmHg 84%
05:00 +12°C° 0 mm 1 m/S 750 mmHg 82%
06:00 +12°C° 0 mm 1 m/S 750 mmHg 80%
07:00 +14°C° 0 mm 1 m/S 750 mmHg 76%
08:00 +16°C° 0 mm 1 m/S 750 mmHg 72%
09:00 +18°C° 0 mm 1 m/S 750 mmHg 69%
10:00 +19°C° 0 mm 1 m/S 750 mmHg 66%
11:00 +19°C° 0 mm 2 m/S 749 mmHg 64%
12:00 +21°C° 0 mm 2 m/S 749 mmHg 61%
13:00 +21°C° 0 mm 2 m/S 749 mmHg 60%
14:00 +21°C° 0 mm 2 m/S 748 mmHg 59%
15:00 +23°C° 0 mm 2 m/S 748 mmHg 58%
16:00 +23°C° 0 mm 2 m/S 748 mmHg 61%
17:00 +21°C° 0 mm 2 m/S 748 mmHg 64%
18:00 +21°C° 0 mm 2 m/S 748 mmHg 68%
19:00 +19°C° 0 mm 2 m/S 748 mmHg 72%
20:00 +16°C° 0 mm 2 m/S 748 mmHg 76%
21:00 +14°C° 0 mm 1 m/S 748 mmHg 80%
22:00 +14°C° 0 mm 1 m/S 748 mmHg 79%
23:00 +13°C° 0 mm 1 m/S 748 mmHg 79%
Mehr zeigen

Wir brauchen deine Erlaubnis

Meteoprog und unser Service Anbieter werden persönliche Daten aufbewahren, so wie Cookies, Geräte Bezeichnung oder ähnliche Technologien von deinem Gerät und Prozess, so wie Persönliche Daten Inhalte und Werbungen, genauso wie social Media und den Verkehr zu analysieren.

  • Aufbewahrung und/oder Zugang zu deiner Geräte Informationen.

    Cookies, Geräte Bezeichnung oder andere Informationen, können aufbewahrt oder Zugang zu deinem Gerät erhalten, für den Grund, der oben angegeben wird.

  • Personalisierte Werbung und Inhalte, Messungen, Einblick in das Publikum und Produkt Entwicklung.

    Werbungen und Inhalte können personalisiert werden, basierend auf ein Profil. Mehr Daten können besser personalisierte Werbungen und Inhalte hinzufügen. Werbung und Inhalte können gezeigt und gemessen werden. Einblicke über das Publikum, welche die Werbung gesehen haben und den Inhalt, können abgeleitet werden. So wie Daten können genutzt werden, um es zu verbessern oder die Benutzer Erfahrung zu verbessern das System und die Software.

Wenn du “Ich stimme zu” klickst, erlaubst du uns, die Cookies zu benutzen die Geräte Bezeichnung, den Web oder ähnliche Technologien zu benutzen. Deine Settings, können in deinem Gerät bei deinem Browser geändert werden.

Für den bestimmten Zweck, berechtigten Interessen beruhen darauf, mehr als auf den Inhalt. Du kannst mehr darüber in unseren Privaten und Cookie Politik lesen.